Location: Huntsville
(34.7300°N, 86.5860°W)
Time: 00:51:07
(UTC-05:00)

Tiangong - Visible Passes

Search period start: 26 October 2021 00:00
Search period end: 05 November 2021 00:00
Orbit: 381 x 390 km, 41.5° (Epoch: 25 October)

Date Brightness Start Highest point End Pass type
(mag) Time Alt. Az. Time Alt. Az. Time Alt. Az.
26 Oct 1.9 19:09:02 10° NW 19:12:01 35° NNE 19:12:35 32° NE visible
27 Oct 2.6 19:46:13 10° WNW 19:48:16 36° WNW 19:48:16 36° WNW visible
28 Oct 1.3 18:46:41 10° WNW 18:49:50 54° NNE 18:51:46 20° E visible
28 Oct 4.7 20:23:55 10° W 20:24:01 10° W 20:24:01 10° W visible
29 Oct 2.0 19:23:58 10° WNW 19:27:02 43° SSW 19:27:38 38° S visible
30 Oct 1.1 18:24:14 10° WNW 18:27:25 84° SSW 18:30:37 10° ESE visible
30 Oct 4.2 20:02:39 10° WSW 20:03:39 12° SW 20:03:39 12° SW visible
31 Oct 3.4 19:01:49 10° W 19:04:23 22° SW 19:06:56 10° SSE visible
02 Nov 4.3 18:40:21 10° WSW 18:41:30 12° SW 18:42:39 10° SSW visible
